[[{"header":{"parameterUnit":"m.s-1","parameterCategory":1,"la1":30.2991,"la2":30.254,"lo1":-89.0895,"lo2":-89.0444,"dy":0.0017,"dx":0.0017,"nx":28,"ny":28,"refTime":"2024-04-21T03:00:00:Z","depth":0,"parameterNumber":2,"parameterNumberName":"U-component_of_WINDS"},"data":[0,0,0,0,0,0,0,0,0,0,0,0,0,0,0,0,0,0,0,0,0,0,0,0,0,0,0,0,0,0,0,0,0,0,0,0,0,0,0,0,0,0,0,0,0,0,0,0,0,0,0,0,0,0,0,0,0,0,-0.8135,-0.8134,0,-0.8059,-0.8058,-0.8057,-0.7999,-0.7999,-0.7998,-0.7998,-0.7917,-0.7915,-0.7913,0,0,0,0,0,0,0,0,0,0,0,0,0,-0.8227,-0.8226,-0.8135,-0.8134,-0.8133,-0.8059,-0.8058,-0.8057,-0.8,-0.7999,-0.7998,-0.7998,-0.7917,-0.7915,-0.7913,0,0,0,0,0,0,0,0,0,0,0,0,0,-0.8173,-0.8226,-0.8135,-0.8096,-0.8092,-0.8059,-0.8058,-0.8056,-0.8,-0.7999,-0.7998,-0.7997,-0.7918,-0.7915,-0.7913,-0.7912,0,0,-0.7905,-0.7904,0,0,0,0,0,0,0,0,-0.8176,-0.8169,-0.8103,-0.8099,-0.8094,-0.8038,-0.806,-0.8008,-0.8,-0.8035,-0.7998,-0.7997,-0.7957,-0.7952,-0.7939,-0.7909,-0.7905,-0.7905,-0.7903,-0.7902,-0.7901,0,0,0,0,0,0,0,-0.818,-0.8172,-0.8105,-0.8102,-0.8096,-0.808,-0.8072,-0.805,-0.8001,-0.8031,-0.8027,-0.8019,-0.7955,-0.7941,-0.7936,-0.7904,-0.7905,-0.7903,-0.7901,-0.79,-0.7866,-0.7866,0,0,0,0,0,0,-0.819,-0.8176,-0.8107,-0.8103,-0.8134,-0.8079,-0.807,-0.8057,-0.8001,-0.7992,-0.802,-0.8017,-0.7946,-0.7939,-0.7933,-0.7927,-0.7902,-0.79,-0.7898,-0.7865,-0.7866,-0.7867,0,0,0,0,0,0,-0.8192,-0.8185,-0.811,-0.8138,-0.8127,-0.8079,-0.8064,-0.8055,-0.8042,-0.7992,-0.7983,-0.8015,-0.7945,-0.7937,-0.7917,-0.7924,-0.7899,-0.7896,-0.7865,-0.7865,-0.7866,-0.7917,0,0,0,0,0,0,-0.8195,-0.8186,-0.8187,-0.8138,-0.8126,-0.8098,-0.8065,-0.8054,-0.8038,-0.8033,-0.7986,-0.7977,-0.7944,-0.7922,-0.7915,-0.792,-0.7894,-0.7864,-0.7865,-0.7866,-0.7914,-0.7919,-0.7924,0,0,0,0,0,-0.8199,-0.8204,-0.8187,-0.8179,-0.8126,-0.8098,-0.8091,-0.8054,-0.8039,-0.8038,-0.8006,-0.7979,-0.7924,-0.792,-0.7912,-0.7916,-0.7863,-0.7865,-0.7866,-0.7912,-0.7918,-0.7924,0,0,0,0,0,0,-0.8254,-0.8197,-0.8178,-0.8168,-0.8138,-0.8089,-0.8087,-0.8062,-0.8035,-0.8032,-0.7985,-0.7975,-0.796,-0.7936,-0.7933,-0.7911,-0.789,-0.789,-0.7928,-0.7933,-0.7938,-0.7944,-0.7892,0,0,0,0,0,-0.8265,-0.8248,-0.8199,-0.8194,-0.8181,-0.8136,-0.8123,-0.8096,-0.8064,-0.8051,-0.8017,-0.7985,-0.796,-0.7945,-0.792,-0.791,-0.7898,-0.7909,-0.7913,-0.7918,-0.7918,-0.7908,-0.7912,-0.7871,-0.7871,-0.7871,0,0,-0.8287,-0.8254,-0.8246,-0.8205,-0.8179,-0.8161,-0.8126,-0.811,-0.8095,-0.8048,-0.8028,-0.8001,-0.7962,-0.7947,-0.7939,-0.7927,-0.7926,-0.7919,-0.7923,-0.7921,-0.791,-0.7914,-0.7918,-0.7872,-0.7872,-0.7872,0,0,-0.8319,-0.8293,-0.8286,-0.826,-0.8221,-0.8191,-0.819,-0.8143,-0.8124,-0.8103,-0.8066,-0.8047,-0.8007,-0.798,-0.7961,-0.7979,-0.7952,-0.7972,-0.7997,-0.7988,-0.7991,-0.7993,-0.7999,-0.8001,-0.7973,-0.7973,-0.7973,0,-0.8352,-0.8325,-0.8285,-0.827,-0.8251,-0.8207,-0.8198,-0.8175,-0.813,-0.8117,-0.8104,-0.8051,-0.8022,-0.7998,-0.8003,-0.7989,-0.7984,-0.7978,-0.7994,-0.7996,-0.7998,-0.8002,-0.8004,-0.7975,-0.7975,-0.7975,-0.7975,0,-0.8366,-0.8348,-0.8346,-0.8304,-0.8285,-0.8273,-0.8229,-0.8215,-0.8189,-0.816,-0.8137,-0.81,-0.8065,-0.8058,-0.8033,-0.803,-0.8023,-0.8003,-0.798,-0.8005,-0.8008,-0.801,-0.7979,-0.7978,-0.7977,-0.7977,0,0,-0.8433,-0.8367,-0.8367,-0.8346,-0.8298,-0.8282,-0.8267,-0.8234,-0.8221,-0.819,-0.8175,-0.814,-0.812,-0.8098,-0.8069,-0.8062,-0.8076,-0.8041,-0.8039,-0.8048,-0.8068,-0.8084,-0.8087,-0.8058,-0.8058,-0.8058,-0.8071,0,-0.8457,-0.8429,-0.8391,-0.8374,-0.8355,-0.8312,-0.8298,-0.8266,-0.8237,-0.8216,-0.8183,-0.8159,-0.8135,-0.8121,-0.8111,-0.8077,-0.8079,-0.8075,-0.8041,-0.804,-0.8053,-0.8089,-0.8106,-0.8121,-0.8072,-0.8073,-0.8073,0,-0.8482,-0.8454,-0.8436,-0.8387,-0.8378,-0.8366,-0.8331,-0.8312,-0.8273,-0.8253,-0.8228,-0.8196,-0.8174,-0.8154,-0.8123,-0.8121,-0.8104,-0.8085,-0.8084,-0.808,-0.8059,-0.8085,-0.8125,-0.8127,-0.8075,-0.8074,-0.8074,0,-0.8531,-0.8488,-0.8471,-0.8455,-0.8398,-0.8391,-0.8367,-0.8328,-0.8309,-0.8278,-0.8265,-0.8231,-0.8213,-0.8186,-0.8145,-0.8134,-0.8118,-0.8095,-0.8098,-0.81,-0.8098,-0.8098,-0.8135,-0.8088,-0.8088,-0.8087,-0.8087,0,-0.8562,-0.8552,-0.8492,-0.8482,-0.8469,-0.8424,-0.8412,-0.8383,-0.8348,-0.833,-0.829,-0.8273,-0.822,-0.8196,-0.8163,-0.8141,-0.8133,-0.8114,-0.8106,-0.8118,-0.812,-0.8107,-0.8104,-0.8088,-0.8088,-0.8088,-0.8088,0,-0.8615,-0.8575,-0.8553,-0.8501,-0.8488,-0.848,-0.8434,-0.8421,-0.8389,-0.8366,-0.8358,-0.8308,-0.8277,-0.8233,-0.8189,-0.8167,-0.815,-0.8136,-0.8163,-0.8158,-0.8164,-0.8164,-0.8193,-0.8194,-0.8147,-0.8148,-0.8148,0,-0.8638,-0.8629,-0.8576,-0.8561,-0.8539,-0.8515,-0.8496,-0.845,-0.8431,-0.8385,-0.8377,-0.8344,-0.8315,-0.8268,-0.8226,-0.8191,-0.8176,-0.8188,-0.817,-0.8182,-0.8175,-0.8176,-0.8173,-0.8193,-0.8194,-0.8194,-0.8195,0,-0.8682,-0.8662,-0.8636,-0.8603,-0.8581,-0.8552,-0.8521,-0.8511,-0.8458,-0.8438,-0.8407,-0.8384,-0.8339,-0.8305,-0.8264,-0.8237,-0.8206,-0.8201,-0.8199,-0.8212,-0.8227,-0.8218,-0.8175,-0.82,-0.82,-0.8199,-0.8199,-0.8199,-0.872,-0.8709,-0.867,-0.8642,-0.8613,-0.8585,-0.857,-0.8535,-0.8509,-0.8469,-0.8443,-0.8412,-0.837,-0.8313,-0.8286,-0.826,-0.8248,-0.8247,-0.8246,-0.8246,-0.825,-0.8232,-0.8253,-0.8252,-0.8252,-0.8252,-0.8252,0,-0.8761,-0.8733,-0.8707,-0.8665,-0.8642,-0.8616,-0.858,-0.8562,-0.8536,-0.85,-0.8472,-0.8434,-0.8401,-0.8355,-0.8318,-0.8305,-0.829,-0.8297,-0.8297,-0.8291,-0.8264,-0.8268,-0.831,-0.831,-0.831,-0.831,-0.831,-0.831,-0.878,-0.876,-0.8735,-0.8699,-0.867,-0.8641,-0.8622,-0.8595,-0.8566,-0.8526,-0.8498,-0.8469,-0.8428,-0.8387,-0.8354,-0.8341,-0.8329,-0.834,-0.8322,-0.8298,-0.8293,-0.8288,-0.8292,-0.8338,-0.8338,-0.8351,-0.8351,-0.8352]},{"header":{"parameterUnit":"m.s-1","parameterCategory":1,"la1":30.2991,"la2":30.254,"lo1":-89.0895,"lo2":-89.0444,"dy":0.0017,"dx":0.0017,"nx":28,"ny":28,"refTime":"2024-04-21T03:00:00:Z","depth":0,"parameterNumber":3,"parameterNumberName":"V-component_of_WINDS"},"data":[0,0,0,0,0,0,0,0,0,0,0,0,0,0,0,0,0,0,0,0,0,0,0,0,0,0,0,0,0,0,0,0,0,0,0,0,0,0,0,0,0,0,0,0,0,0,0,0,0,0,0,0,0,0,0,0,0,0,-7.2839,-7.2841,0,-7.2982,-7.2983,-7.2985,-7.2944,-7.2941,-7.2938,-7.2936,-7.3073,-7.3079,-7.3085,0,0,0,0,0,0,0,0,0,0,0,0,0,-7.2523,-7.2529,-7.2839,-7.2841,-7.2843,-7.2981,-7.2983,-7.2985,-7.2945,-7.2941,-7.2938,-7.2934,-7.3071,-7.3078,-7.3086,0,0,0,0,0,0,0,0,0,0,0,0,0,-7.2662,-7.2531,-7.2839,-7.2839,-7.2841,-7.2981,-7.2983,-7.2986,-7.2945,-7.2941,-7.2937,-7.2933,-7.3068,-7.3077,-7.3087,-7.3233,0,0,-7.3116,-7.312,0,0,0,0,0,0,0,0,-7.2654,-7.2674,-7.2838,-7.284,-7.2842,-7.2941,-7.2922,-7.3068,-7.2946,-7.2905,-7.2935,-7.293,-7.3032,-7.3044,-7.308,-7.3239,-7.3245,-7.3117,-7.3123,-7.3127,-7.3129,0,0,0,0,0,0,0,-7.2645,-7.2667,-7.2895,-7.284,-7.2842,-7.2829,-7.2844,-7.295,-7.2991,-7.2909,-7.2906,-7.2924,-7.3032,-7.3071,-7.3083,-7.3247,-7.3117,-7.3125,-7.3131,-7.3135,-7.353,-7.3535,0,0,0,0,0,0,-7.2635,-7.266,-7.2891,-7.2899,-7.2736,-7.2839,-7.2856,-7.2913,-7.299,-7.2997,-7.2927,-7.2921,-7.3057,-7.3072,-7.3088,-7.3262,-7.3127,-7.3136,-7.3141,-7.3525,-7.3531,-7.3536,0,0,0,0,0,0,-7.2628,-7.2656,-7.2885,-7.2779,-7.2807,-7.2849,-7.2914,-7.2918,-7.2957,-7.3004,-7.301,-7.296,-7.3054,-7.3074,-7.3197,-7.3266,-7.314,-7.3149,-7.352,-7.3527,-7.3534,-7.3613,0,0,0,0,0,0,-7.2619,-7.2654,-7.2712,-7.2781,-7.2813,-7.2995,-7.2918,-7.2924,-7.2975,-7.2968,-7.3037,-7.3044,-7.3052,-7.3183,-7.3206,-7.3277,-7.3156,-7.3514,-7.3523,-7.3532,-7.3604,-7.3622,-7.3637,0,0,0,0,0,-7.2608,-7.2727,-7.2715,-7.2743,-7.2887,-7.2999,-7.3017,-7.3027,-7.2981,-7.3038,-7.3068,-7.3041,-7.3255,-7.3196,-7.3222,-7.3297,-7.3509,-7.352,-7.3531,-7.3597,-7.3619,-7.3637,0,0,0,0,0,0,-7.2662,-7.2736,-7.2723,-7.2869,-7.2928,-7.2992,-7.3065,-7.305,-7.3122,-7.3112,-7.3119,-7.3134,-7.326,-7.329,-7.3223,-7.3441,-7.3375,-7.3392,-7.3416,-7.3437,-7.3453,-7.3443,-7.3164,0,0,0,0,0,-7.2691,-7.2779,-7.2838,-7.296,-7.2991,-7.3023,-7.3072,-7.3075,-7.3135,-7.3159,-7.3198,-7.3256,-7.3336,-7.3388,-7.3464,-7.3609,-7.3622,-7.3673,-7.3689,-7.3702,-7.3716,-7.3793,-7.3816,-7.3572,-7.3572,-7.3572,0,0,-7.2751,-7.2803,-7.2857,-7.2972,-7.3018,-7.3106,-7.3044,-7.314,-7.3204,-7.3173,-7.3292,-7.3323,-7.3387,-7.3521,-7.3582,-7.355,-7.3786,-7.3716,-7.3726,-7.3733,-7.3806,-7.3829,-7.385,-7.3579,-7.3578,-7.3577,0,0,-7.2906,-7.2955,-7.3062,-7.311,-7.3182,-7.3203,-7.3228,-7.3295,-7.3315,-7.3435,-7.3413,-7.3488,-7.3626,-7.3673,-7.3714,-7.3887,-7.3864,-7.3911,-7.3996,-7.4071,-7.409,-7.4107,-7.4167,-7.4188,-7.3925,-7.3925,-7.3925,0,-7.2971,-7.3106,-7.3117,-7.3216,-7.3266,-7.3245,-7.3351,-7.3396,-7.3488,-7.3522,-7.3486,-7.3659,-7.37,-7.3844,-7.3886,-7.3921,-7.3948,-7.3903,-7.4087,-7.4104,-7.412,-7.4177,-7.42,-7.393,-7.3929,-7.3929,-7.3928,0,-7.3182,-7.3275,-7.3352,-7.3445,-7.3504,-7.3605,-7.3629,-7.3687,-7.3684,-7.3707,-7.3828,-7.3878,-7.3963,-7.3998,-7.3995,-7.4141,-7.4119,-7.4085,-7.4019,-7.4148,-7.4202,-7.4224,-7.3937,-7.3935,-7.3934,-7.3933,0,0,-7.3374,-7.3473,-7.35,-7.3542,-7.362,-7.3691,-7.379,-7.3877,-7.3925,-7.3989,-7.407,-7.4188,-7.4157,-7.4204,-7.4206,-7.4272,-7.4404,-7.423,-7.4231,-7.4259,-7.4565,-7.459,-7.4615,-7.439,-7.4394,-7.4397,-7.4559,0,-7.3535,-7.3714,-7.3727,-7.3886,-7.3972,-7.3952,-7.4038,-7.4094,-7.4118,-7.4191,-7.4216,-7.4299,-7.4253,-7.4281,-7.4346,-7.4374,-7.4465,-7.4363,-7.4463,-7.4467,-7.4447,-7.4643,-7.467,-7.482,-7.458,-7.4584,-7.4587,0,-7.3746,-7.382,-7.3989,-7.4055,-7.4091,-7.4169,-7.4248,-7.432,-7.4381,-7.4393,-7.4447,-7.444,-7.4538,-7.447,-7.4605,-7.4535,-7.4576,-7.4596,-7.4602,-7.4611,-7.4534,-7.4656,-7.4869,-7.4891,-7.462,-7.4617,-7.4615,0,-7.3868,-7.4009,-7.4128,-7.4164,-7.4244,-7.4299,-7.4334,-7.4391,-7.4442,-7.451,-7.4543,-7.4621,-7.4663,-7.4722,-7.4735,-7.4684,-7.4869,-7.4802,-7.488,-7.488,-7.4919,-7.4917,-7.514,-7.4948,-7.4948,-7.4948,-7.4947,0,-7.4046,-7.415,-7.4184,-7.4258,-7.4373,-7.4385,-7.4497,-7.4528,-7.458,-7.4656,-7.4643,-7.4714,-7.4728,-7.4801,-7.4812,-7.4921,-7.494,-7.4951,-7.4952,-7.4952,-7.495,-7.4978,-7.4967,-7.4954,-7.4952,-7.4951,-7.495,0,-7.4201,-7.4229,-7.4358,-7.4423,-7.4442,-7.4523,-7.4578,-7.4646,-7.4669,-7.4766,-7.4789,-7.4824,-7.491,-7.4929,-7.503,-7.5036,-7.5166,-7.5157,-7.5146,-7.5145,-7.5221,-7.5213,-7.547,-7.5504,-7.5291,-7.5293,-7.5294,0,-7.4313,-7.4393,-7.4467,-7.4519,-7.4557,-7.4641,-7.4693,-7.4708,-7.4762,-7.4838,-7.4897,-7.4981,-7.505,-7.5187,-7.5219,-7.5296,-7.5288,-7.5373,-7.53,-7.5296,-7.5288,-7.5283,-7.529,-7.5387,-7.5389,-7.5391,-7.5392,0,-7.4506,-7.4516,-7.4594,-7.4677,-7.474,-7.4805,-7.4866,-7.4909,-7.4931,-7.4992,-7.5082,-7.5135,-7.5239,-7.5322,-7.54,-7.5432,-7.5415,-7.5416,-7.5437,-7.5437,-7.5427,-7.5432,-7.5183,-7.5409,-7.5408,-7.5406,-7.5405,-7.5405,-7.4642,-7.4712,-7.4776,-7.4862,-7.4911,-7.4969,-7.5036,-7.5068,-7.5144,-7.5232,-7.5235,-7.5331,-7.5388,-7.5491,-7.5528,-7.5601,-7.5574,-7.5606,-7.5614,-7.5622,-7.5628,-7.5417,-7.5615,-7.5615,-7.5614,-7.5614,-7.5613,0,-7.4834,-7.4875,-7.4954,-7.5042,-7.511,-7.5092,-7.5158,-7.5215,-7.5301,-7.5357,-7.5426,-7.5527,-7.5608,-7.5647,-7.5726,-7.5777,-7.5771,-7.5797,-7.5792,-7.58,-7.5648,-7.5621,-7.58,-7.58,-7.58,-7.58,-7.58,-7.58,-7.4942,-7.5059,-7.5077,-7.5216,-7.5254,-7.5352,-7.5391,-7.5443,-7.5488,-7.5603,-7.5671,-7.5697,-7.5745,-7.5828,-7.59,-7.5909,-7.5938,-7.5967,-7.5972,-7.583,-7.5811,-7.5792,-7.5767,-7.5974,-7.5974,-7.6118,-7.6119,-7.612]}]]